Location: Burgerwiesen
(48.6500°N, 15.6167°E)
Time: 09:44:11
(UTC+00:00)

BREEZE M DEB (TANK) - Pass Details

Date: 09 April 2020
Orbit: 313 x 13666 km, 49.6° (Epoch: 23 May)

Event Time Altitude Azimuth Distance (km) Brightness Sun altitude
Rises 20:43:53 0° 264° (W) 4,637 7.9 -26.1°
Reaches altitude 10° 20:48:13 10° 266° (W) 2,553 6.6 -26.5°
Enters shadow 20:51:30 33° 272° (W) 945 4.2 -26.8°
